Location: Sebastopol
(38.4021°N, 122.8239°W)
Time: 15:13:06
(UTC+00:00)

CZ-4B DEB - Pass Details

Date: 29 October 2020
Orbit: 840 x 862 km, 99.1° (Epoch: 30 November)

Event Time Altitude Azimuth Distance (km) Brightness Sun altitude
Rises 14:02:29 0° 14° (NNE) 3,417 7.4 -7.0°
Reaches altitude 10° 14:04:52 10° 14° (NNE) 2,475 6.7 -6.6°
Maximum altitude 14:10:22 87° 103° (ESE) 850 4.3 -5.5°
Drops below altitude 10° 14:15:48 10° 194° (SSW) 2,449 6.6 -4.5°
Sets 14:18:09 0° 195° (SSW) 3,378 7.3 -4.1°
